When you browse on this site, cookies collect data to enhance your experience and personalize the content and advertising you see.
Visit our Privacy Policy to learn more. By continuing to use the site, you agree to this use of cookies and data.
  • In France
  • List of Countries
  • For 7 days
  • Water Temperature
  • Weather Map
  • Weather Widgets
  • user-avatar
    Login

    Hourly Weather Maceio

    Today, 7 December, Saturday

    Time Temperature Precipitation Wind Pressure Humidity
    00:00 +27°C° 0 mm 5 mps 757 mmHg 88%
    01:00 +27°C° 0 mm 5 mps 757 mmHg 87%
    02:00 +27°C° 0 mm 5 mps 757 mmHg 84%
    03:00 +28°C° 0 mm 5 mps 757 mmHg 80%
    04:00 +28°C° 0 mm 5 mps 756 mmHg 76%
    05:00 +28°C° 0 mm 5 mps 757 mmHg 77%
    06:00 +28°C° 0 mm 5 mps 757 mmHg 77%
    07:00 +28°C° 0 mm 5 mps 758 mmHg 78%
    08:00 +30°C° 0 mm 5 mps 758 mmHg 68%
    09:00 +33°C° 0 mm 5 mps 758 mmHg 58%
    10:00 +35°C° 0 mm 5 mps 758 mmHg 48%
    11:00 +36°C° 0 mm 5 mps 757 mmHg 46%
    12:00 +38°C° 0 mm 6 mps 757 mmHg 44%
    13:00 +39°C° 0 mm 6 mps 756 mmHg 43%
    14:00 +38°C° 0 mm 7 mps 756 mmHg 47%
    15:00 +36°C° 0 mm 7 mps 756 mmHg 51%
    16:00 +35°C° 0 mm 8 mps 755 mmHg 55%
    17:00 +33°C° 0 mm 7 mps 755 mmHg 62%
    18:00 +32°C° 0 mm 7 mps 756 mmHg 70%
    19:00 +29°C° 0 mm 6 mps 756 mmHg 77%
    20:00 +29°C° 0 mm 6 mps 756 mmHg 79%
    21:00 +28°C° 0 mm 6 mps 757 mmHg 82%
    22:00 +28°C° 0 mm 6 mps 757 mmHg 84%
    23:00 +28°C° 0 mm 6 mps 757 mmHg 84%

    Tomorrow, 8 December, Sunday

    Time Temperature Precipitation Wind Pressure Humidity
    00:00 +28°C° 0 mm 5 mps 757 mmHg 84%
    01:00 +28°C° 0 mm 5 mps 757 mmHg 84%
    02:00 +27°C° 0 mm 5 mps 757 mmHg 86%
    03:00 +27°C° 0 mm 5 mps 756 mmHg 88%
    04:00 +26°C° 0 mm 5 mps 756 mmHg 90%
    05:00 +27°C° 0 mm 5 mps 757 mmHg 88%
    06:00 +27°C° 0 mm 5 mps 757 mmHg 86%
    07:00 +28°C° 0 mm 5 mps 757 mmHg 83%
    08:00 +30°C° 0 mm 5 mps 758 mmHg 72%
    09:00 +33°C° 0 mm 5 mps 758 mmHg 61%
    10:00 +35°C° 0 mm 6 mps 758 mmHg 51%
    11:00 +36°C° 0 mm 6 mps 758 mmHg 48%
    12:00 +38°C° 0 mm 6 mps 757 mmHg 46%
    13:00 +38°C° 0 mm 7 mps 757 mmHg 44%
    14:00 +36°C° 0 mm 7 mps 757 mmHg 47%
    15:00 +35°C° 0 mm 7 mps 756 mmHg 50%
    16:00 +34°C° 0 mm 7 mps 756 mmHg 53%
    17:00 +33°C° 0 mm 7 mps 756 mmHg 61%
    18:00 +30°C° 0 mm 7 mps 757 mmHg 68%
    19:00 +28°C° 0 mm 6 mps 757 mmHg 76%
    20:00 +28°C° 0 mm 6 mps 758 mmHg 79%
    21:00 +27°C° 0 mm 6 mps 758 mmHg 82%
    22:00 +27°C° 0 mm 6 mps 759 mmHg 85%
    23:00 +26°C° 0 mm 6 mps 758 mmHg 86%

    Day after tomorrow, 9 December, Monday

    Time Temperature Precipitation Wind Pressure Humidity
    00:00 +26°C° 0 mm 5 mps 758 mmHg 88%
    01:00 +26°C° 0 mm 5 mps 758 mmHg 89%
    02:00 +25°C° 0 mm 5 mps 758 mmHg 90%
    03:00 +25°C° 0 mm 5 mps 758 mmHg 91%
    04:00 +25°C° 0 mm 4 mps 758 mmHg 92%
    05:00 +25°C° 0.1 mm 4 mps 758 mmHg 89%
    06:00 +26°C° 0.1 mm 4 mps 758 mmHg 86%
    07:00 +26°C° 0.1 mm 4 mps 759 mmHg 83%
    08:00 +28°C° 0.1 mm 5 mps 759 mmHg 73%
    09:00 +30°C° 0.1 mm 5 mps 759 mmHg 62%
    10:00 +33°C° 0.1 mm 5 mps 759 mmHg 52%
    11:00 +34°C° 0 mm 5 mps 759 mmHg 49%
    12:00 +35°C° 0 mm 5 mps 759 mmHg 45%
    13:00 +35°C° 0 mm 5 mps 758 mmHg 42%
    14:00 +35°C° 0 mm 5 mps 758 mmHg 44%
    15:00 +34°C° 0 mm 5 mps 758 mmHg 46%
    16:00 +34°C° 0 mm 5 mps 757 mmHg 49%
    17:00 +32°C° 0 mm 4 mps 758 mmHg 57%
    18:00 +29°C° 0 mm 4 mps 758 mmHg 65%
    19:00 +27°C° 0 mm 4 mps 758 mmHg 73%
    20:00 +27°C° 0.2 mm 4 mps 758 mmHg 77%
    21:00 +26°C° 0.2 mm 3 mps 759 mmHg 81%
    22:00 +26°C° 0.2 mm 3 mps 759 mmHg 85%
    23:00 +25°C° 0.5 mm 3 mps 759 mmHg 86%

    10 December, Tuesday

    Time Temperature Precipitation Wind Pressure Humidity
    00:00 +25°C° 0.5 mm 4 mps 758 mmHg 87%
    01:00 +25°C° 0.5 mm 4 mps 758 mmHg 89%
    02:00 +25°C° 0.3 mm 4 mps 758 mmHg 90%
    03:00 +25°C° 0.3 mm 4 mps 757 mmHg 90%
    04:00 +23°C° 0.3 mm 4 mps 757 mmHg 91%
    05:00 +25°C° 0.1 mm 4 mps 757 mmHg 89%
    06:00 +25°C° 0.1 mm 4 mps 758 mmHg 87%
    07:00 +26°C° 0.1 mm 4 mps 758 mmHg 84%
    08:00 +28°C° 0 mm 4 mps 759 mmHg 71%
    09:00 +32°C° 0 mm 4 mps 759 mmHg 59%
    10:00 +34°C° 0 mm 4 mps 759 mmHg 46%
    11:00 +35°C° 0 mm 4 mps 759 mmHg 44%
    12:00 +35°C° 0 mm 5 mps 758 mmHg 43%
    13:00 +36°C° 0 mm 5 mps 758 mmHg 42%
    14:00 +35°C° 0 mm 5 mps 758 mmHg 44%
    15:00 +34°C° 0 mm 5 mps 757 mmHg 46%
    16:00 +33°C° 0 mm 5 mps 757 mmHg 49%
    17:00 +32°C° 0 mm 5 mps 757 mmHg 57%
    18:00 +29°C° 0 mm 5 mps 757 mmHg 66%
    19:00 +27°C° 0 mm 4 mps 757 mmHg 74%
    20:00 +27°C° 0 mm 4 mps 758 mmHg 77%
    21:00 +26°C° 0 mm 4 mps 758 mmHg 80%
    22:00 +26°C° 0 mm 4 mps 758 mmHg 83%
    23:00 +25°C° 0 mm 4 mps 758 mmHg 84%

    11 December, Wednesday

    Time Temperature Precipitation Wind Pressure Humidity
    00:00 +25°C° 0 mm 4 mps 758 mmHg 86%
    01:00 +25°C° 0 mm 4 mps 757 mmHg 87%
    02:00 +23°C° 0 mm 4 mps 757 mmHg 87%
    03:00 +23°C° 0 mm 4 mps 757 mmHg 87%
    04:00 +24°C° 0 mm 3 mps 757 mmHg 87%
    05:00 +25°C° 0.1 mm 3 mps 757 mmHg 84%
    06:00 +25°C° 0.1 mm 3 mps 758 mmHg 82%
    07:00 +26°C° 0.1 mm 2 mps 758 mmHg 79%
    08:00 +28°C° 0 mm 3 mps 758 mmHg 69%
    09:00 +30°C° 0 mm 3 mps 758 mmHg 58%
    10:00 +34°C° 0 mm 3 mps 758 mmHg 47%
    11:00 +34°C° 0 mm 4 mps 758 mmHg 47%
    12:00 +35°C° 0 mm 4 mps 757 mmHg 46%
    13:00 +35°C° 0 mm 5 mps 757 mmHg 46%
    14:00 +34°C° 0 mm 5 mps 756 mmHg 49%
    15:00 +34°C° 0 mm 5 mps 756 mmHg 53%
    16:00 +33°C° 0 mm 5 mps 755 mmHg 56%
    17:00 +32°C° 0 mm 5 mps 755 mmHg 63%
    18:00 +29°C° 0 mm 5 mps 756 mmHg 71%
    19:00 +28°C° 0 mm 5 mps 756 mmHg 78%
    20:00 +27°C° 0 mm 5 mps 757 mmHg 81%
    21:00 +27°C° 0 mm 5 mps 757 mmHg 84%
    22:00 +26°C° 0 mm 4 mps 758 mmHg 87%
    23:00 +26°C° 0.2 mm 4 mps 757 mmHg 88%

    12 December, Thursday

    Time Temperature Precipitation Wind Pressure Humidity
    00:00 +26°C° 0.2 mm 4 mps 757 mmHg 88%
    01:00 +26°C° 0.2 mm 4 mps 757 mmHg 89%
    02:00 +26°C° 0.2 mm 4 mps 757 mmHg 89%
    03:00 +26°C° 0.2 mm 4 mps 757 mmHg 89%
    04:00 +26°C° 0.2 mm 4 mps 756 mmHg 89%
    05:00 +26°C° 0.5 mm 3 mps 757 mmHg 88%
    06:00 +26°C° 0.5 mm 3 mps 757 mmHg 87%
    07:00 +27°C° 0.5 mm 2 mps 757 mmHg 85%
    08:00 +28°C° 0.4 mm 3 mps 758 mmHg 77%
    09:00 +30°C° 0.4 mm 3 mps 758 mmHg 68%
    10:00 +33°C° 0.4 mm 4 mps 758 mmHg 59%
    11:00 +33°C° 0.3 mm 4 mps 758 mmHg 58%
    12:00 +33°C° 0.3 mm 5 mps 757 mmHg 57%
    13:00 +34°C° 0.3 mm 5 mps 757 mmHg 56%
    14:00 +33°C° 0 mm 5 mps 757 mmHg 57%
    15:00 +33°C° 0 mm 5 mps 756 mmHg 57%
    16:00 +33°C° 0 mm 5 mps 756 mmHg 58%
    17:00 +30°C° 0 mm 5 mps 756 mmHg 64%
    18:00 +29°C° 0 mm 5 mps 757 mmHg 69%
    19:00 +28°C° 0 mm 4 mps 757 mmHg 75%
    20:00 +27°C° 0 mm 4 mps 757 mmHg 78%
    21:00 +27°C° 0 mm 4 mps 757 mmHg 81%
    22:00 +26°C° 0 mm 4 mps 758 mmHg 84%
    23:00 +26°C° 0.1 mm 4 mps 758 mmHg 85%
    Show more